Home > Weather > Hanoi > Past weeks

Flag for Vietnam Weather for the Past 2 Weeks in Hanoi, Vietnam

Now
82 °F

Partly cloudy.


Feels Like: 92 °F
Forecast: 77 / 88 °F
Wind: 13 mph from Southeast

Location: Ha Noi Airport

Current Time: May 3, 2016 at 10:04:40 PM

Latest Report: May 3, 2016 at 9:30 PM


Visibility: N/A

Pressure: 29.83 "Hg

Humidity: 89%

Dew Point: 79 °F

Location of HanoiLocation

Historic Weather in Hanoi — Graph

°F

Hanoi Temperature Yesterday

Maximum temperature yesterday: 90 °F (at 1:30 PM)
Minimum temperature yesterday: 77 °F (at 2:30 AM)
Average temperature yesterday: 82 °F

High & Low Weather Summary for the Past Weeks

 TemperatureHumidityPressure
High90 °F (Apr 26, 2:00 PM)100% (Apr 20, 2:30 AM)30.01 "Hg (Apr 20, 2:30 AM)
Low68 °F (Apr 20, 4:30 AM)62% (Apr 30, 1:30 PM)29.59 "Hg (Apr 23, 3:00 PM)
Average79 °F88%29.77 "Hg
* Reported Apr 18 9:00 PM — May 3 9:00 PM, Hanoi, Weather by CustomWeather, © 2016

Note: Actual official high and low records may vary slightly from our data, if they occured in-between our weather recording intervals... More about our weather records

Advertising

Hanoi Weather History for the Previous 24 Hours

Scroll right to see more
 ConditionsComfort  
Time TempWeatherWind HumidityBarometerVisibility
9:00 PM
Tue, May 3
82 °FPartly cloudy.13 mph89%29.80 "HgN/A
8:30 PM82 °FPartly cloudy.16 mph89%29.80 "HgN/A
8:00 PM82 °FPartly cloudy.14 mph89%29.77 "HgN/A
7:30 PM82 °FPassing clouds.9 mph89%29.77 "Hg6 mi
6:00 PM84 °FPartly sunny.14 mph89%29.74 "HgN/A
5:30 PM86 °FPassing clouds.15 mph84%29.71 "HgN/A
5:00 PM86 °FScattered clouds.14 mph84%29.71 "HgN/A
4:30 PM88 °FScattered clouds.13 mph79%29.71 "HgN/A
4:00 PM88 °FScattered clouds.14 mph79%29.68 "HgN/A
3:30 PM88 °FScattered clouds.13 mph79%29.71 "HgN/A
3:00 PM88 °FBroken clouds.14 mph79%29.71 "HgN/A
2:30 PM90 °FBroken clouds.12 mph75%29.74 "HgN/A
2:00 PM90 °FBroken clouds.9 mph75%29.74 "HgN/A
1:30 PM88 °FBroken clouds.9 mph79%29.77 "HgN/A
1:00 PM88 °FPartly sunny.9 mph75%29.80 "Hg6 mi
12:30 PM86 °FPartly sunny.9 mph84%29.80 "Hg5 mi
12:00 PM86 °FPartly sunny.7 mph84%29.83 "Hg4 mi
11:30 AM84 °FBroken clouds.9 mph84%29.83 "Hg4 mi
10:30 AM84 °FBroken clouds.6 mph84%29.83 "Hg4 mi
10:00 AM84 °FPartly sunny.8 mph84%29.83 "Hg4 mi
9:30 AM84 °FPartly sunny.8 mph84%29.83 "Hg4 mi
8:30 AM82 °FPartly sunny.8 mph89%29.83 "Hg4 mi
8:00 AM82 °FPartly sunny.7 mph89%29.80 "Hg4 mi
7:30 AM82 °FPartly sunny.8 mph89%29.80 "Hg4 mi
7:00 AM81 °FFog.5 mph89%29.80 "Hg3 mi
6:30 AM81 °FFog.3 mph89%29.77 "Hg2 mi
6:00 AM79 °FFog.5 mph100%29.77 "Hg2 mi
5:30 AM79 °FFog.5 mph100%29.77 "Hg3 mi
5:00 AM79 °FFog.6 mph100%29.74 "Hg3 mi
4:00 AM79 °FFog.9 mph100%29.74 "Hg3 mi
3:30 AM79 °FFog.7 mph100%29.71 "Hg2 mi
3:00 AM79 °FFog.8 mph100%29.74 "Hg2 mi
2:30 AM79 °FFog.7 mph100%29.71 "Hg3 mi
2:00 AM79 °FFog.7 mph100%29.74 "Hg3 mi
1:30 AM79 °FFog.8 mph100%29.74 "Hg3 mi
1:00 AM79 °FPartly cloudy.9 mph100%29.74 "Hg4 mi
12:30 AM81 °FPartly cloudy.9 mph94%29.77 "Hg4 mi
12:00 AM79 °FFog.7 mph100%29.77 "Hg3 mi
11:30 PM
Mon, May 2
79 °FPartly cloudy.9 mph100%29.77 "Hg4 mi
11:00 PM81 °FPartly cloudy.9 mph94%29.77 "Hg4 mi
10:30 PM81 °FPartly cloudy.9 mph94%29.77 "Hg4 mi
10:00 PM81 °FPartly cloudy.12 mph94%29.77 "Hg5 mi
Weather by CustomWeather, © 2016

See weather overviewHow to use our weather pages